Zurück zum Katalog

HAWK-7B

AktivMilitärSSO
NORAD 56193·PAYLOAD·🇺🇸 United States

Gestartet Apr 15, 2023 von Vandenberg Space Force Base

Loading…

Nächste Überflüge (nächste 24 Stunden)

TLE

AktuellSource: Space-Track

Epoche: Sep 14, 2026, 10:45 UTC

1 56193U 23054R   26257.44808740  .00004506  00000-0  16673-3 0  9996
2 56193  97.2571 140.7919 0003821  91.3400 268.8278 15.28169029190654

Verfolge HAWK-7B in Echtzeit mit AllMySat

Download on the App Store